SWR788 LSZH-EBBR

Flight info

Callsign SWR788
Flight time 1h 4m
Altitude 30000
Route VEBIT T10 TORPA DCT EDOPI DCT GIVOR DCT SORAL DCT IBERA DCT DIK Y37 BATTY
Aircraft A321/M-SDE3FGHIRWY/LB1

Departure

Time 2026-05-07 20:43
Airport Zürich Airport (LSZH)

Arrival

Time 2026-05-07 21:48
Airport Brussels Airport (EBBR)
Time Latitude Longitude Altitude Speed Heading
2026-05-07 20:13 47.45423 8.55805 1404 ft 0 kts 186°
2026-05-07 20:35 47.45425 8.55805 1397 ft 2 kts 186°
2026-05-07 20:35 47.45447 8.55808 1399 ft 3 kts 186°
2026-05-07 20:35 47.45471 8.55810 1400 ft 3 kts 171°
2026-05-07 20:35 47.45493 8.55800 1400 ft 3 kts 143°
2026-05-07 20:36 47.45506 8.55776 1397 ft 3 kts 99°
2026-05-07 20:36 47.45508 8.55764 1403 ft 0 kts 96°
2026-05-07 20:39 47.45507 8.55765 1397 ft 1 kts 96°
2026-05-07 20:39 47.45517 8.55818 1406 ft 9 kts 56°
2026-05-07 20:40 47.45594 8.55851 1400 ft 14 kts
2026-05-07 20:40 47.45634 8.55938 1402 ft 11 kts 97°
2026-05-07 20:40 47.45625 8.56051 1405 ft 11 kts 97°
2026-05-07 20:40 47.45616 8.56160 1406 ft 11 kts 96°
2026-05-07 20:41 47.45607 8.56285 1406 ft 14 kts 96°
2026-05-07 20:41 47.45598 8.56436 1399 ft 16 kts 95°
2026-05-07 20:41 47.45586 8.56618 1403 ft 19 kts 96°
2026-05-07 20:41 47.45569 8.56829 1400 ft 22 kts 97°
2026-05-07 20:42 47.45589 8.57011 1407 ft 14 kts 28°
2026-05-07 20:42 47.45663 8.56996 1406 ft 11 kts 292°
2026-05-07 20:42 47.45669 8.56878 1406 ft 13 kts 276°
2026-05-07 20:42 47.45691 8.56592 1403 ft 58 kts 277°
2026-05-07 20:43 47.45760 8.55641 1400 ft 125 kts 276°
2026-05-07 20:43 47.45880 8.54116 1481 ft 164 kts 279°
2026-05-07 20:43 47.45992 8.52481 2192 ft 158 kts 277°
2026-05-07 20:43 47.46100 8.50865 2783 ft 160 kts 277°
2026-05-07 20:44 47.46217 8.49151 3047 ft 177 kts 277°
2026-05-07 20:44 47.46033 8.47278 3175 ft 195 kts 242°
2026-05-07 20:44 47.45025 8.45810 3366 ft 218 kts 213°
2026-05-07 20:44 47.43794 8.44412 3918 ft 225 kts 226°
2026-05-07 20:45 47.42821 8.42613 4666 ft 231 kts 234°
2026-05-07 20:45 47.41877 8.40680 5045 ft 254 kts 234°
2026-05-07 20:45 47.40809 8.38469 5643 ft 270 kts 234°
2026-05-07 20:45 47.39709 8.36185 6460 ft 274 kts 235°
2026-05-07 20:46 47.38677 8.33851 7308 ft 278 kts 241°
2026-05-07 20:46 47.37752 8.31329 8162 ft 282 kts 242°
2026-05-07 20:46 47.36947 8.29057 8927 ft 283 kts 243°
2026-05-07 20:46 47.36172 8.26865 9644 ft 285 kts 243°
2026-05-07 20:47 47.35256 8.24281 10378 ft 292 kts 242°
2026-05-07 20:47 47.34283 8.21508 10618 ft 316 kts 243°
2026-05-07 20:47 47.33239 8.18547 11014 ft 331 kts 243°
2026-05-07 20:47 47.32162 8.15514 11729 ft 336 kts 243°
2026-05-07 20:48 47.31073 8.12452 12530 ft 338 kts 243°
2026-05-07 20:48 47.29994 8.09405 13276 ft 341 kts 243°
2026-05-07 20:48 47.28886 8.06279 14012 ft 345 kts 243°
2026-05-07 20:48 47.27882 8.03063 14720 ft 348 kts 251°
2026-05-07 20:49 47.27341 7.99673 15399 ft 352 kts 263°
2026-05-07 20:49 47.27303 7.96057 16073 ft 356 kts 275°
2026-05-07 20:49 47.27648 7.92420 16731 ft 359 kts 277°
2026-05-07 20:49 47.27996 7.88893 17349 ft 363 kts 277°
2026-05-07 20:50 47.28352 7.85241 17976 ft 366 kts 277°
2026-05-07 20:50 47.28709 7.81512 18579 ft 369 kts 277°
2026-05-07 20:50 47.29035 7.78028 19132 ft 372 kts 277°
2026-05-07 20:50 47.29385 7.74242 19718 ft 375 kts 277°
2026-05-07 20:51 47.29740 7.70426 20298 ft 377 kts 277°
2026-05-07 20:51 47.30096 7.66637 20842 ft 380 kts 277°
2026-05-07 20:51 47.30527 7.62766 21409 ft 383 kts 282°
2026-05-07 20:51 47.31259 7.59175 21928 ft 386 kts 287°
2026-05-07 20:52 47.32072 7.55466 22452 ft 388 kts 287°
2026-05-07 20:52 47.32904 7.51664 22961 ft 391 kts 286°
2026-05-07 20:52 47.33742 7.47831 23468 ft 393 kts 286°
2026-05-07 20:52 47.34576 7.44020 23930 ft 395 kts 286°
2026-05-07 20:53 47.35417 7.40153 24403 ft 398 kts 286°
2026-05-07 20:53 47.36259 7.36262 24870 ft 399 kts 287°
2026-05-07 20:53 47.37087 7.32412 25298 ft 402 kts 286°
2026-05-07 20:53 47.37850 7.28831 25704 ft 403 kts 286°
2026-05-07 20:54 47.38695 7.24871 26134 ft 405 kts 286°
2026-05-07 20:54 47.39544 7.20895 26560 ft 407 kts 286°
2026-05-07 20:54 47.40400 7.16900 26983 ft 408 kts 286°
2026-05-07 20:54 47.41101 7.12884 27360 ft 410 kts 281°
2026-05-07 20:55 47.41674 7.08954 27748 ft 411 kts 281°
2026-05-07 20:55 47.42291 7.04714 28137 ft 413 kts 281°
2026-05-07 20:55 47.42897 7.00573 28500 ft 415 kts 281°
2026-05-07 20:55 47.43512 6.96389 28890 ft 418 kts 281°
2026-05-07 20:56 47.44128 6.92189 29265 ft 419 kts 281°
2026-05-07 20:56 47.44748 6.87974 29606 ft 420 kts 281°
2026-05-07 20:56 47.45367 6.83741 29924 ft 422 kts 281°
2026-05-07 20:57 47.46668 6.75417 30029 ft 405 kts 288°
2026-05-07 20:57 47.47939 6.71717 30035 ft 405 kts 303°
2026-05-07 20:57 47.49878 6.68682 30031 ft 409 kts 320°
2026-05-07 20:57 47.52380 6.66602 30024 ft 417 kts 337°
2026-05-07 20:58 47.55202 6.65729 30037 ft 425 kts 351°
2026-05-07 20:58 47.61105 6.64969 30034 ft 425 kts 351°
2026-05-07 20:59 47.67004 6.64184 30034 ft 425 kts 351°
2026-05-07 20:59 47.72883 6.63359 30032 ft 425 kts 351°
2026-05-07 21:00 47.78757 6.62549 30033 ft 425 kts 351°
2026-05-07 21:00 47.84657 6.61727 30031 ft 426 kts 351°
2026-05-07 21:01 47.90539 6.60911 30040 ft 426 kts 351°
2026-05-07 21:01 47.96445 6.60099 30044 ft 425 kts 352°
2026-05-07 21:02 48.02342 6.59271 30035 ft 425 kts 351°
2026-05-07 21:02 48.08194 6.58453 30043 ft 424 kts 352°
2026-05-07 21:03 48.14074 6.57637 30047 ft 425 kts 352°
2026-05-07 21:03 48.19958 6.56819 30055 ft 423 kts 352°
2026-05-07 21:04 48.25832 6.55996 30058 ft 424 kts 352°
2026-05-07 21:04 48.31671 6.55171 30059 ft 423 kts 352°
2026-05-07 21:05 48.37536 6.54349 30062 ft 423 kts 352°
2026-05-07 21:05 48.43397 6.53524 30059 ft 423 kts 352°
2026-05-07 21:06 48.49293 6.52684 30061 ft 423 kts 351°
2026-05-07 21:06 48.55137 6.51846 30048 ft 425 kts 351°
2026-05-07 21:07 48.61048 6.51003 30057 ft 425 kts 351°
2026-05-07 21:07 48.66940 6.50170 30061 ft 425 kts 351°
2026-05-07 21:08 48.72828 6.49336 30057 ft 425 kts 352°
2026-05-07 21:08 48.78710 6.48498 30057 ft 425 kts 351°
2026-05-07 21:09 48.84599 6.47642 30057 ft 425 kts 351°
2026-05-07 21:09 48.90464 6.46780 30061 ft 426 kts 351°
2026-05-07 21:10 48.96355 6.45925 30061 ft 426 kts 352°
2026-05-07 21:10 49.01259 6.45225 30063 ft 426 kts 352°
2026-05-07 21:11 49.07850 6.44276 30069 ft 426 kts 352°
2026-05-07 21:11 49.15493 6.42092 30067 ft 421 kts 342°
2026-05-07 21:12 49.21167 6.39758 30065 ft 421 kts 342°
2026-05-07 21:12 49.26713 6.37462 30065 ft 421 kts 342°
2026-05-07 21:13 49.32368 6.35129 30064 ft 421 kts 342°
2026-05-07 21:13 49.38037 6.32798 30064 ft 422 kts 342°
2026-05-07 21:14 49.43722 6.30459 30067 ft 422 kts 342°
2026-05-07 21:14 49.49359 6.28125 30067 ft 423 kts 342°
2026-05-07 21:15 49.54974 6.25806 30066 ft 423 kts 342°
2026-05-07 21:15 49.60601 6.23500 30070 ft 424 kts 342°
2026-05-07 21:16 49.66302 6.21160 30072 ft 423 kts 342°
2026-05-07 21:16 49.71882 6.18856 30074 ft 423 kts 342°
2026-05-07 21:17 49.77561 6.16519 30078 ft 423 kts 342°
2026-05-07 21:17 49.83260 6.14169 30080 ft 423 kts 342°
2026-05-07 21:18 49.88925 6.11893 30078 ft 424 kts 344°
2026-05-07 21:18 49.94680 6.09874 30030 ft 421 kts 345°
2026-05-07 21:19 49.97554 6.08905 29387 ft 421 kts 345°
2026-05-07 21:19 50.00406 6.07941 28815 ft 418 kts 345°
2026-05-07 21:19 50.03212 6.06979 28262 ft 415 kts 345°
2026-05-07 21:19 50.06030 6.05992 27712 ft 413 kts 345°
2026-05-07 21:20 50.08824 6.05006 27167 ft 409 kts 345°
2026-05-07 21:20 50.11600 6.04017 26618 ft 408 kts 344°
2026-05-07 21:20 50.14353 6.03032 26066 ft 404 kts 345°
2026-05-07 21:20 50.17090 6.02055 25510 ft 401 kts 345°
2026-05-07 21:21 50.19813 6.01088 24957 ft 399 kts 345°
2026-05-07 21:21 50.22528 6.00164 24388 ft 398 kts 346°
2026-05-07 21:21 50.25205 5.99371 23838 ft 396 kts 348°
2026-05-07 21:21 50.27937 5.98618 23358 ft 391 kts 347°
2026-05-07 21:22 50.30557 5.97827 22943 ft 385 kts 346°
2026-05-07 21:22 50.33164 5.96976 22484 ft 380 kts 345°
2026-05-07 21:22 50.35725 5.96002 21979 ft 378 kts 343°
2026-05-07 21:22 50.38259 5.94926 21386 ft 377 kts 342°
2026-05-07 21:23 50.40781 5.93787 20855 ft 374 kts 342°
2026-05-07 21:23 50.43287 5.92685 20335 ft 373 kts 343°
2026-05-07 21:23 50.45767 5.91629 19955 ft 367 kts 342°
2026-05-07 21:23 50.48217 5.90591 19550 ft 362 kts 343°
2026-05-07 21:24 50.50661 5.89686 19058 ft 359 kts 346°
2026-05-07 21:24 50.53081 5.88875 18512 ft 359 kts 346°
2026-05-07 21:24 50.55557 5.88018 17962 ft 359 kts 344°
2026-05-07 21:24 50.57916 5.86970 17484 ft 356 kts 342°
2026-05-07 21:25 50.60310 5.86041 17166 ft 350 kts 346°
2026-05-07 21:25 50.62623 5.85012 16788 ft 343 kts 336°
2026-05-07 21:25 50.64686 5.83182 16298 ft 339 kts 320°
2026-05-07 21:25 50.66315 5.80521 15841 ft 335 kts 304°
2026-05-07 21:26 50.67455 5.77335 15286 ft 334 kts 294°
2026-05-07 21:26 50.68440 5.74067 14808 ft 333 kts 294°
2026-05-07 21:26 50.69431 5.70767 14363 ft 331 kts 294°
2026-05-07 21:26 50.70426 5.67501 13885 ft 330 kts 295°
2026-05-07 21:27 50.71443 5.64269 13319 ft 331 kts 296°
2026-05-07 21:27 50.72500 5.61032 12758 ft 332 kts 297°
2026-05-07 21:27 50.73584 5.57811 12304 ft 330 kts 296°
2026-05-07 21:27 50.74637 5.54625 11870 ft 326 kts 296°
2026-05-07 21:28 50.75677 5.51444 11512 ft 321 kts 296°
2026-05-07 21:28 50.76673 5.48365 11093 ft 318 kts 296°
2026-05-07 21:28 50.77690 5.45267 10641 ft 316 kts 296°
2026-05-07 21:28 50.78688 5.42199 10263 ft 313 kts 297°
2026-05-07 21:29 50.79662 5.39143 9962 ft 306 kts 296°
2026-05-07 21:29 50.80596 5.36188 9840 ft 293 kts 296°
2026-05-07 21:29 50.81467 5.33357 9708 ft 282 kts 295°
2026-05-07 21:29 50.82312 5.30550 9297 ft 282 kts 295°
2026-05-07 21:30 50.83156 5.27750 8906 ft 281 kts 295°
2026-05-07 21:30 50.84001 5.24954 8448 ft 283 kts 296°
2026-05-07 21:30 50.84852 5.22326 8085 ft 281 kts 297°
2026-05-07 21:30 50.85734 5.19598 8012 ft 267 kts 297°
2026-05-07 21:31 50.86555 5.17019 7783 ft 259 kts 297°
2026-05-07 21:31 50.87340 5.14553 7498 ft 250 kts 297°
2026-05-07 21:31 50.88212 5.12238 7309 ft 241 kts 313°
2026-05-07 21:31 50.89530 5.10773 7196 ft 234 kts 340°
2026-05-07 21:32 50.91138 5.10354 7147 ft 232 kts
2026-05-07 21:32 50.92674 5.11106 7141 ft 232 kts 33°
2026-05-07 21:32 50.93821 5.12846 7126 ft 229 kts 58°
2026-05-07 21:32 50.94383 5.15188 7190 ft 229 kts 83°
2026-05-07 21:33 50.94299 5.17688 7140 ft 229 kts 107°
2026-05-07 21:33 50.93549 5.19891 7180 ft 228 kts 127°
2026-05-07 21:33 50.92567 5.21850 7235 ft 230 kts 128°
2026-05-07 21:33 50.91591 5.23854 7272 ft 229 kts 126°
2026-05-07 21:34 50.90600 5.25857 7239 ft 231 kts 129°
2026-05-07 21:34 50.89547 5.27781 7213 ft 231 kts 131°
2026-05-07 21:34 50.88471 5.29676 7184 ft 232 kts 135°
2026-05-07 21:34 50.87127 5.31012 7091 ft 230 kts 162°
2026-05-07 21:35 50.85554 5.31165 7036 ft 231 kts 190°
2026-05-07 21:35 50.83971 5.30117 6994 ft 265 kts 217°
2026-05-07 21:35 50.82833 5.27763 7033 ft 276 kts 249°
2026-05-07 21:35 50.82602 5.24767 7065 ft 278 kts 279°
2026-05-07 21:36 50.83263 5.22019 7075 ft 278 kts 300°
2026-05-07 21:36 50.84315 5.19510 7176 ft 278 kts 306°
2026-05-07 21:36 50.85494 5.16998 7235 ft 279 kts 307°
2026-05-07 21:36 50.86663 5.14519 7181 ft 279 kts 307°
2026-05-07 21:37 50.87815 5.12032 7128 ft 280 kts 306°
2026-05-07 21:37 50.88926 5.09572 7053 ft 277 kts 305°
2026-05-07 21:37 50.90043 5.07059 7000 ft 279 kts 305°
2026-05-07 21:37 50.91141 5.04518 6787 ft 280 kts 304°
2026-05-07 21:38 50.92229 5.01976 6464 ft 277 kts 304°
2026-05-07 21:38 50.93300 4.99445 6289 ft 276 kts 304°
2026-05-07 21:38 50.94336 4.97065 6314 ft 278 kts 304°
2026-05-07 21:38 50.95421 4.94476 5917 ft 281 kts 304°
2026-05-07 21:39 50.96487 4.91900 5577 ft 277 kts 303°
2026-05-07 21:39 50.97478 4.89301 5192 ft 275 kts 301°
2026-05-07 21:39 50.98475 4.86714 4855 ft 272 kts 303°
2026-05-07 21:39 50.99515 4.84279 4772 ft 259 kts 309°
2026-05-07 21:40 51.00799 4.82451 4923 ft 259 kts 332°
2026-05-07 21:40 51.02503 4.81590 5078 ft 254 kts 356°
2026-05-07 21:40 51.04212 4.81808 5037 ft 242 kts 17°
2026-05-07 21:40 51.05654 4.82988 4968 ft 227 kts 43°
2026-05-07 21:41 51.06596 4.84883 4914 ft 213 kts 64°
2026-05-07 21:41 51.07105 4.87066 4763 ft 207 kts 79°
2026-05-07 21:41 51.07155 4.89227 4616 ft 198 kts 103°
2026-05-07 21:41 51.06536 4.91462 4338 ft 242 kts 123°
2026-05-07 21:42 51.05400 4.93357 4086 ft 240 kts 143°
2026-05-07 21:42 51.03857 4.94456 3611 ft 246 kts 166°
2026-05-07 21:42 51.02159 4.94413 3388 ft 243 kts 194°
2026-05-07 21:42 51.00742 4.93140 3214 ft 236 kts 226°
2026-05-07 21:43 50.99970 4.90870 2892 ft 237 kts 257°
2026-05-07 21:43 50.99803 4.88318 2723 ft 229 kts 267°
2026-05-07 21:43 50.99704 4.85817 2607 ft 221 kts 266°
2026-05-07 21:43 50.99573 4.83496 2532 ft 208 kts 263°
2026-05-07 21:44 50.99338 4.81130 2294 ft 230 kts 261°
2026-05-07 21:44 50.99038 4.78625 2041 ft 235 kts 258°
2026-05-07 21:44 50.98595 4.76179 1970 ft 222 kts 250°
2026-05-07 21:44 50.98022 4.73974 1973 ft 214 kts 246°
2026-05-07 21:45 50.97421 4.71853 1693 ft 217 kts 246°
2026-05-07 21:45 50.96798 4.69589 1611 ft 229 kts 247°
2026-05-07 21:45 50.96157 4.67294 1679 ft 226 kts 246°
2026-05-07 21:45 50.95521 4.65069 1788 ft 213 kts 246°
2026-05-07 21:46 50.94918 4.62956 1610 ft 208 kts 246°
2026-05-07 21:46 50.94323 4.60859 1499 ft 212 kts 246°
2026-05-07 21:46 50.93705 4.58703 1301 ft 217 kts 245°
2026-05-07 21:46 50.93068 4.56547 966 ft 213 kts 246°
2026-05-07 21:47 50.92455 4.54452 676 ft 208 kts 245°
2026-05-07 21:47 50.91857 4.52389 409 ft 205 kts 246°
2026-05-07 21:47 50.91271 4.50320 205 ft 200 kts 245°
2026-05-07 21:47 50.90729 4.48467 121 ft 150 kts 245°
2026-05-07 21:48 50.90407 4.47352 124 ft 79 kts 245°
2026-05-07 21:48 50.90270 4.46909 129 ft 23 kts 231°
2026-05-07 21:48 50.90150 4.46740 130 ft 21 kts 218°
2026-05-07 21:48 50.90081 4.46688 129 ft 9 kts 165°
2026-05-07 21:49 50.90056 4.46733 128 ft 8 kts 107°
2026-05-07 21:49 50.90074 4.46820 126 ft 9 kts 60°
2026-05-07 21:49 50.90123 4.46995 126 ft 17 kts 66°
2026-05-07 21:49 50.90158 4.47166 124 ft 14 kts 107°
2026-05-07 21:50 50.90130 4.47257 122 ft 13 kts 102°
2026-05-07 21:50 50.90188 4.47332 123 ft 14 kts 357°
2026-05-07 21:50 50.90252 4.47439 120 ft 16 kts 69°
2026-05-07 21:50 50.90301 4.47606 121 ft 17 kts 65°
2026-05-07 21:51 50.90344 4.47760 119 ft 15 kts 66°
2026-05-07 21:51 50.90388 4.47914 121 ft 15 kts 65°
2026-05-07 21:51 50.90389 4.48036 124 ft 10 kts 144°
2026-05-07 21:51 50.90345 4.48101 117 ft 7 kts 146°
2026-05-07 21:52 50.90300 4.48131 120 ft 6 kts 153°
2026-05-07 21:52 50.90288 4.48140 118 ft 0 kts 153°